DG2GGP-11 Weather Reports


time (UTC)temp
C
wind
direction
speed
KPH
gust
KPH
rain 1hr
cm
rain 24hr
cm
rain mn
cm
humidity
%
barometer
mb
20260502195916 13 228 0.0 0.0 0.00 0.00 0.00 69 1018.4
20260502194916 13 275 6.4 0.0 0.00 0.00 0.00 68 1018.5
20260502193917 14 330 4.8 0.0 0.00 0.00 0.00 68 1018.4
20260502192916 14 288 0.0 0.0 0.00 0.00 0.00 67 1018.4
20260502191917 15 325 4.8 0.0 0.00 0.00 0.00 67 1018.4
20260502190916 15 340 4.8 0.0 0.00 0.00 0.00 66 1018.3
20260502185917 15 323 6.4 0.0 0.00 0.00 0.00 63 1018.3
20260502184916 16 258 0.0 0.0 0.00 0.00 0.00 63 1018.2
20260502183916 17 310 4.8 0.0 0.00 0.00 0.00 61 1018.1
20260502182916 17 290 4.8 0.0 0.00 0.00 0.00 59 1018.1
20260502181917 18 313 6.4 0.0 0.00 0.00 0.00 57 1018.0
20260502180916 19 263 4.8 0.0 0.00 0.00 0.00 54 1017.9
20260502163916 25 0 6.4 0.0 0.00 0.00 0.00 35 1018.3
20260502162917 24 350 8.0 0.0 0.00 0.00 0.00 36 1018.4
20260502161917 24 348 6.4 0.0 0.00 0.00 0.00 35 1018.6
20260502160917 25 13 6.4 0.0 0.00 0.00 0.00 33 1018.7
20260502151917 24 155 12.9 0.0 0.00 0.00 0.00 35 1019.1
20260502150917 25 73 11.3 0.0 0.00 0.00 0.00 33 1019.2
20260502122916 24 85 9.7 0.0 0.00 0.00 0.00 31 1021.2
20260502121916 24 45 9.7 0.0 0.00 0.00 0.00 30 1021.3
20260502120916 23 150 9.7 0.0 0.00 0.00 0.00 31 1021.4
20260502115916 25 3 11.3 0.0 0.00 0.00 0.00 30 1021.5
20260502114917 24 108 6.4 0.0 0.00 0.00 0.00 31 1021.6
20260502113916 24 73 11.3 0.0 0.00 0.00 0.00 31 1021.8
20260502112916 23 138 6.4 0.0 0.00 0.00 0.00 31 1022.0
20260502111916 23 145 8.0 0.0 0.00 0.00 0.00 31 1022.1
20260502110916 23 150 11.3 0.0 0.00 0.00 0.00 33 1022.1
20260502105916 23 20 11.3 0.0 0.00 0.00 0.00 31 1022.2
20260502104916 23 35 9.7 0.0 0.00 0.00 0.00 31 1022.3
20260502103917 23 155 8.0 0.0 0.00 0.00 0.00 34 1022.4
20260502102916 22 140 9.7 0.0 0.00 0.00 0.00 32 1022.4
20260502101916 23 168 9.7 0.0 0.00 0.00 0.00 32 1022.5
20260502100916 22 155 9.7 0.0 0.00 0.00 0.00 32 1022.7
20260502090916 22 355 9.7 0.0 0.00 0.00 0.00 36 1023.2
20260502070916 16 230 4.8 0.0 0.00 0.00 0.00 50 1023.7
20260502065916 15 308 8.0 0.0 0.00 0.00 0.00 53 1023.8
20260502064916 14 358 8.0 0.0 0.00 0.00 0.00 56 1023.8
20260502063916 12 225 8.0 0.0 0.00 0.00 0.00 59 1023.8
20260502062916 12 295 6.4 0.0 0.00 0.00 0.00 60 1023.8
20260502061916 11 320 6.4 0.0 0.00 0.00 0.00 63 1023.8
20260502060916 10 335 4.8 0.0 0.00 0.00 0.00 67 1023.8
20260502055916 8 328 8.0 0.0 0.00 0.00 0.00 69 1023.7
20260502054916 7 303 6.4 0.0 0.00 0.00 0.00 73 1023.8
20260502053916 7 245 6.4 0.0 0.00 0.00 0.00 75 1023.8
20260502052916 6 278 6.4 0.0 0.00 0.00 0.00 77 1023.7
20260502051917 5 275 0.0 0.0 0.00 0.00 0.00 78 1023.7
20260502050917 5 193 8.0 0.0 0.00 0.00 0.00 78 1023.6
20260502045917 4 235 6.4 0.0 0.00 0.00 0.00 79 1023.6
20260502044916 3 165 8.0 0.0 0.00 0.00 0.00 80 1023.7
20260502043916 3 163 4.8 0.0 0.00 0.00 0.00 80 1023.7
20260502042919 3 220 8.0 0.0 0.00 0.00 0.00 81 1023.7
20260502041916 3 153 6.4 0.0 0.00 0.00 0.00 81 1023.7
20260502040916 3 0 4.8 0.0 0.00 0.00 0.00 80 1023.7
20260502035917 3 180 4.8 0.0 0.00 0.00 0.00 80 1023.7
20260502034917 3 220 6.4 0.0 0.00 0.00 0.00 80 1023.8
20260502033916 3 193 4.8 0.0 0.00 0.00 0.00 79 1023.7
20260502032916 3 243 11.3 0.0 0.00 0.00 0.00 78 1023.7
20260502031916 3 313 11.3 0.0 0.00 0.00 0.00 78 1023.8
20260502030917 3 178 6.4 0.0 0.00 0.00 0.00 79 1023.8
20260502025916 3 193 4.8 0.0 0.00 0.00 0.00 78 1023.8
20260502024917 3 208 6.4 0.0 0.00 0.00 0.00 78 1023.9
20260502023917 3 195 8.0 0.0 0.00 0.00 0.00 78 1024.0
20260502022916 3 240 6.4 0.0 0.00 0.00 0.00 78 1024.0
20260502021916 3 170 6.4 0.0 0.00 0.00 0.00 78 1024.0
20260502020917 3 240 0.0 0.0 0.00 0.00 0.00 78 1024.1
20260502015917 3 205 0.0 0.0 0.00 0.00 0.00 78 1024.1
20260502014917 3 200 0.0 0.0 0.00 0.00 0.00 77 1024.2
20260502013916 4 218 6.4 0.0 0.00 0.00 0.00 77 1024.2
20260502012917 4 185 4.8 0.0 0.00 0.00 0.00 77 1024.3
20260502011916 4 90 0.0 0.0 0.00 0.00 0.00 76 1024.3
20260502010916 4 8 0.0 0.0 0.00 0.00 0.00 76 1024.3
20260502005916 4 285 4.8 0.0 0.00 0.00 0.00 76 1024.3
20260502004916 4 328 4.8 0.0 0.00 0.00 0.00 74 1024.4
20260502003916 5 315 4.8 0.0 0.00 0.00 0.00 74 1024.5
20260502002917 5 333 4.8 0.0 0.00 0.00 0.00 74 1024.5
20260502001916 5 300 6.4 0.0 0.00 0.00 0.00 73 1024.6
20260502000916 5 333 4.8 0.0 0.00 0.00 0.00 73 1024.7
20260501235916 5 340 4.8 0.0 0.00 0.00 0.00 73 1024.7
20260501234917 5 325 6.4 0.0 0.00 0.00 0.00 73 1024.7
20260501233916 5 78 3.2 0.0 0.00 0.00 0.00 72 1024.8
20260501232916 5 70 4.8 0.0 0.00 0.00 0.00 73 1024.8
20260501231917 5 320 3.2 0.0 0.00 0.00 0.00 72 1024.8
20260501230916 6 313 4.8 0.0 0.00 0.00 0.00 72 1024.7
20260501225916 6 330 6.4 0.0 0.00 0.00 0.00 71 1024.8
20260501224917 6 315 4.8 0.0 0.00 0.00 0.00 71 1024.8
20260501223917 6 280 0.0 0.0 0.00 0.00 0.00 71 1024.8
20260501222917 6 185 0.0 0.0 0.00 0.00 0.00 70 1024.9
20260501221916 6 250 4.8 0.0 0.00 0.00 0.00 69 1024.8
20260501220916 7 218 4.8 0.0 0.00 0.00 0.00 69 1024.8
20260501215916 7 328 4.8 0.0 0.00 0.00 0.00 68 1024.9
20260501214916 7 60 0.0 0.0 0.00 0.00 0.00 68 1024.8
20260501213917 7 290 6.4 0.0 0.00 0.00 0.00 67 1024.8
20260501212916 7 45 4.8 0.0 0.00 0.00 0.00 66 1024.7
20260501211916 7 260 4.8 0.0 0.00 0.00 0.00 66 1024.8
20260501210917 8 255 8.0 0.0 0.00 0.00 0.00 65 1024.8
20260501205916 8 330 4.8 0.0 0.00 0.00 0.00 65 1024.7
20260501204916 8 260 6.4 0.0 0.00 0.00 0.00 64 1024.8
20260501203916 8 190 0.0 0.0 0.00 0.00 0.00 63 1024.8
20260501202917 9 325 0.0 0.0 0.00 0.00 0.00 62 1024.8
20260501201916 9 310 6.4 0.0 0.00 0.00 0.00 62 1024.8
20260501200916 10 295 0.0 0.0 0.00 0.00 0.00 61 1024.8